Find Local Weather

World > North America > United States > Nevada

Schurz, Nevada Regional Weather

Lat: 38.99N, Lon: 118.83W
Wx Zone: NVZ001
Feedback

Schurz, NV Regional Weather

Expires:201905231900;;339552
ASUS45 KREV 231810
RWRNV 
NEVADA REGIONAL WEATHER ROUNDUP
NATIONAL WEATHER SERVICE RENO NV
1100 AM PDT THU MAY 23 2019

NOTE: "FAIR" INDICATES FEW OR NO CLOUDS BELOW 12,000 FEET WITH NO
SIGNIFICANT WEATHER AND/OR OBSTRUCTIONS TO VISIBILITY.


NVZ001-003-004-231900-
WESTERN NEVADA
  
CITY           SKY/WX    TMP DP  RH WIND       PRES   REMARKS
RENO           CLOUDY    53  40  61 NW14      29.85R                  
6HR MIN TEMP:  48; 6HR MAX TEMP:  54; 6HR PCP:  0.01;                

CARSON CITY    CLOUDY    50  43  76 N14       29.84S                  
MINDEN         CLOUDY    50  41  71 N13       29.86S                  
SLIDE MTN        N/A     32  32 100 E6          N/A                   
FALLON         LGT RAIN  52  44  74 N9        29.82R                  
6HR MIN TEMP:  47; 6HR MAX TEMP:  53; 6HR PCP:  0.01;                

LOVELOCK       PTSUNNY   53  43  68 NE20      29.82S                  
6HR MIN TEMP:  45; 6HR MAX TEMP:  53; 6HR PCP:  0.02;                

HAWTHORNE      SUNNY     52  45  76 N17       29.83S                  
$$


SKY/WX - Weather  TMP - Temperature  DP - Dew Point  RH - Relative Humidity
WIND - Wind Direction/Speed PRES - Barometric Pressure VSB - Visibility
WCI - Wind Chill Index E13G22 Wind - East Wind 13 mph/Gusts of 22 mph